Location: Gaast
(52.9002°N, 5.8891°E)
Time: 02:26:16
(UTC+00:00)

CZ-2D R/B - Pass Details

Date: 18 November 2025
Orbit: 403 x 411 km, 97.4° (Epoch: 12 December)

Event Time Altitude Azimuth Distance (km) Brightness Sun altitude
Rises 16:24:03 0° 144° (SE) 2,331 6.4 -7.1°
Reaches altitude 10° 16:26:08 10° 134° (SE) 1,472 5.3 -7.4°
Maximum altitude 16:29:00 33° 69° (ENE) 711 3.4 -7.8°
Drops below altitude 10° 16:31:53 10° 3° (N) 1,479 5.3 -8.2°
Sets 16:33:58 0° 354° (N) 2,344 6.4 -8.5°
